[[[{"header":{"parameterUnit":"kt","parameterCategory":2,"dx":1,"dy":1,"la1":30.253999710083008,"la2":30.299108505249023,"lo1":-89.0895004272461,"lo2":-89.04439544677734,"nx":28,"ny":28,"refTime":"2022-10-18T21:00:00:Z","depth":0,"parameterNumber":1,"parameterNumberName":"U-component_of_WINDS"},"data":[-3.864,-3.8872,-3.8861,-3.9119,-3.9152,-3.9328,-3.9387,-3.9461,-3.9517,-3.9723,-3.984,-3.9851,-3.9902,-4.0039,-4.0164,-4.0166,-4.0223,-4.0312,-4.0301,-3.9908,-3.9853,-3.9801,-3.9748,-4.0323,-4.0324,-4.0712,-4.0716,-4.0719,-3.835,-3.8385,-3.8518,-3.864,-3.8754,-3.8659,-3.8748,-3.885,-3.901,-3.908,-3.9194,-3.9375,-3.9517,-3.9538,-3.9672,-3.978,-3.9746,-3.9818,-3.9814,-3.9824,-3.9402,-3.9345,-3.9844,-3.9844,-3.9844,-3.9844,-3.9843,-3.9843,-3.7819,-3.7959,-3.8026,-3.817,-3.8228,-3.8309,-3.844,-3.8451,-3.8581,-3.8721,-3.868,-3.886,-3.8929,-3.9085,-3.9135,-3.9275,-3.9193,-3.927,-3.929,-3.9312,-3.9339,-3.8787,-3.9296,-3.9294,-3.9293,-3.9292,-3.9291,0,-3.7429,-3.741,-3.7537,-3.7662,-3.7766,-3.7862,-3.7947,-3.8027,-3.7982,-3.8092,-3.825,-3.8339,-3.8515,-3.8663,-3.8786,-3.8822,-3.8741,-3.8728,-3.8782,-3.881,-3.8816,-3.8821,-3.8138,-3.8716,-3.8711,-3.8708,-3.8705,-3.8703,-3.6899,-3.7062,-3.7126,-3.7217,-3.7261,-3.7408,-3.7494,-3.7442,-3.7536,-3.7633,-3.7759,-3.7905,-3.8021,-3.8275,-3.8289,-3.8421,-3.8384,-3.8606,-3.8404,-3.842,-3.8394,-3.8388,-3.8406,-3.865,-3.8657,-3.8662,-3.8667,0,-3.6602,-3.6582,-3.6831,-3.6879,-3.6895,-3.7069,-3.711,-3.7247,-3.7242,-3.7431,-3.7471,-3.7467,-3.7624,-3.76,-3.7774,-3.7758,-3.8046,-3.8002,-3.8021,-3.8014,-3.8215,-3.8199,-3.8862,-3.8947,-3.8343,-3.8348,-3.8353,0,-3.6145,-3.6361,-3.632,-3.6466,-3.6703,-3.6646,-3.6883,-3.6903,-3.6962,-3.711,-3.701,-3.7151,-3.7098,-3.7236,-3.7212,-3.7442,-3.7473,-3.7477,-3.747,-3.7491,-3.7491,-3.7546,-3.7522,-3.7439,-3.7435,-3.7432,-3.743,0,-3.5689,-3.5918,-3.6153,-3.6203,-3.6277,-3.6388,-3.6424,-3.649,-3.6575,-3.6681,-3.6736,-3.6863,-3.6935,-3.7035,-3.7005,-3.6868,-3.7283,-3.709,-3.7288,-3.7289,-3.7388,-3.7384,-3.7969,-3.7426,-3.7425,-3.7424,-3.7422,0,-3.5319,-3.5427,-3.577,-3.5829,-3.5892,-3.6047,-3.6169,-3.6295,-3.6372,-3.6367,-3.645,-3.6384,-3.658,-3.639,-3.666,-3.6492,-3.6568,-3.6588,-3.6602,-3.6625,-3.6416,-3.6758,-3.7311,-3.7371,-3.6636,-3.663,-3.6624,0,-3.4804,-3.5145,-3.5099,-3.5426,-3.5581,-3.546,-3.563,-3.5701,-3.5709,-3.5841,-3.5848,-3.6001,-3.5854,-3.59,-3.6035,-3.6051,-3.6269,-3.602,-3.6218,-3.6226,-3.6207,-3.6714,-3.6807,-3.719,-3.6539,-3.6548,-3.6555,0,-3.4405,-3.4492,-3.4555,-3.461,-3.4694,-3.4823,-3.5018,-3.5156,-3.5247,-3.5337,-3.5502,-3.5712,-3.5612,-3.5688,-3.5648,-3.5791,-3.6119,-3.5665,-3.5666,-3.5753,-3.6493,-3.658,-3.6645,-3.6061,-3.6071,-3.6079,-3.6488,0,-3.3861,-3.4028,-3.4191,-3.4317,-3.4412,-3.4615,-3.4592,-3.4694,-3.4646,-3.465,-3.4889,-3.4944,-3.5088,-3.5152,-3.5108,-3.5441,-3.5383,-3.5275,-3.5096,-3.5426,-3.5561,-3.5615,-3.4897,-3.4891,-3.4886,-3.4883,0,0,-3.3377,-3.3616,-3.3562,-3.375,-3.3828,-3.3701,-3.3921,-3.3981,-3.411,-3.4167,-3.4064,-3.4373,-3.4423,-3.4718,-3.4818,-3.4875,-3.4934,-3.4821,-3.5268,-3.5311,-3.535,-3.5495,-3.5551,-3.4875,-3.4873,-3.4871,-3.487,0,-3.3175,-3.3225,-3.3441,-3.3501,-3.3588,-3.3582,-3.3634,-3.37,-3.3713,-3.3947,-3.3843,-3.3984,-3.4233,-3.4301,-3.4368,-3.4781,-3.4699,-3.4825,-3.5058,-3.5222,-3.5271,-3.5314,-3.5466,-3.5521,-3.4859,-3.4859,-3.486,0,-3.2782,-3.2829,-3.293,-3.3099,-3.3156,-3.3318,-3.3121,-3.3301,-3.3421,-3.3279,-3.3514,-3.3542,-3.3631,-3.3911,-3.4035,-3.3947,-3.4487,-3.4311,-3.434,-3.4356,-3.4514,-3.4573,-3.4625,-3.3935,-3.3932,-3.3929,0,0,-3.2611,-3.2766,-3.2802,-3.3054,-3.3097,-3.3091,-3.3175,-3.3137,-3.3218,-3.3251,-3.3287,-3.3371,-3.3514,-3.3611,-3.3744,-3.4054,-3.4071,-3.4198,-3.4242,-3.4278,-3.4313,-3.4481,-3.4539,-3.3917,-3.3917,-3.3916,0,0,-3.2531,-3.2583,-3.252,-3.2809,-3.2889,-3.2944,-3.3099,-3.3024,-3.3143,-3.3118,-3.3063,-3.3084,-3.3344,-3.3377,-3.3221,-3.3681,-3.3503,-3.354,-3.3652,-3.3707,-3.3749,-3.3739,-3.3032,0,0,0,0,0,-3.2315,-3.2575,-3.2518,-3.2563,-3.2778,-3.2975,-3.3002,-3.2962,-3.2836,-3.296,-3.2978,-3.2883,-3.3282,-3.3142,-3.3189,-3.3366,-3.3765,-3.3792,-3.3817,-3.4034,-3.4091,-3.414,0,0,0,0,0,0,-3.2332,-3.2388,-3.2511,-3.2577,-3.2625,-3.2965,-3.2743,-3.274,-3.2822,-3.28,-3.2882,-3.2885,-3.2856,-3.3116,-3.3158,-3.3328,-3.3018,-3.3775,-3.3798,-3.3819,-3.4054,-3.4101,-3.4141,0,0,0,0,0,-3.2346,-3.239,-3.2746,-3.2573,-3.2615,-3.2624,-3.2733,-3.2728,-3.2792,-3.2821,-3.2821,-3.2755,-3.2862,-3.2895,-3.3141,-3.3309,-3.2988,-3.3004,-3.379,-3.3808,-3.3824,-3.4077,0,0,0,0,0,0,-3.2356,-3.2388,-3.2753,-3.2765,-3.2472,-3.2604,-3.2623,-3.2719,-3.2806,-3.2809,-3.269,-3.2672,-3.287,-3.2894,-3.292,-3.3305,-3.2964,-3.298,-3.299,-3.3804,-3.3818,-3.3831,0,0,0,0,0,0,-3.2364,-3.2399,-3.2759,-3.2634,-3.263,-3.2586,-3.2604,-3.2806,-3.2809,-3.267,-3.2657,-3.2681,-3.2831,-3.2895,-3.2914,-3.3232,-3.2945,-3.2961,-3.2972,-3.2979,-3.3815,-3.3826,0,0,0,0,0,0,-3.2378,-3.2408,-3.263,-3.2628,-3.2624,-3.2748,-3.2765,-3.2988,-3.27,-3.2668,-3.2673,-3.266,-3.2835,-3.2853,-3.2911,-3.3221,-3.3229,-3.2946,-3.2956,-3.2964,-3.2969,0,0,0,0,0,0,0,-3.2389,-3.2198,-3.2687,-3.2623,-3.262,-3.2869,-3.2872,-3.2875,-3.2697,-3.2686,-3.2676,-3.2666,-3.2856,-3.2873,-3.289,-3.3212,0,0,-3.2944,-3.2952,0,0,0,0,0,0,0,0,-3.2185,-3.2195,-3.2687,-3.2689,-3.2692,-3.2869,-3.2872,-3.2874,-3.2695,-3.2686,-3.2678,-3.267,-3.2861,-3.2874,-3.2888,0,0,0,0,0,0,0,0,0,0,0,0,0,0,0,-3.2687,-3.2689,0,-3.287,-3.2872,-3.2874,-3.2694,-3.2687,-3.268,-3.2673,-3.2864,-3.2876,-3.2887,0,0,0,0,0,0,0,0,0,0,0,0,0,0,0,0,0,0,0,0,0,0,0,0,0,0,0,0,0,0,0,0,0,0,0,0,0,0,0,0,0,0,0,0,0,0,0,0,0,0,0,0,0,0,0,0,0,0,0,0,0,0,0,0,0,0,0,0,0]}],[{"header":{"parameterUnit":"kt","parameterCategory":2,"dx":1,"dy":1,"la1":30.253999710083008,"la2":30.299108505249023,"lo1":-89.0895004272461,"lo2":-89.04439544677734,"nx":28,"ny":28,"refTime":"2022-10-18T21:00:00:Z","depth":0,"parameterNumber":2,"parameterNumberName":"V-component_of_WINDS"},"data":[-14.8465,-14.8785,-14.8795,-14.9162,-14.9232,-14.9482,-14.9573,-14.9691,-14.9785,-15.0079,-15.0248,-15.0285,-15.0377,-15.0575,-15.0754,-15.0764,-15.0839,-15.0946,-15.094,-15.0459,-15.0392,-15.0329,-15.0255,-15.0963,-15.0964,-15.1436,-15.144,-15.1444,-14.8108,-14.8182,-14.8381,-14.8578,-14.8746,-14.8648,-14.8794,-14.8939,-14.9164,-14.9283,-14.945,-14.9708,-14.9909,-14.9965,-15.0158,-15.0301,-15.0263,-15.0353,-15.0341,-15.0356,-14.9843,-14.9765,-15.038,-15.038,-15.038,-15.038,-15.038,-15.038,-14.746,-14.7653,-14.7778,-14.7993,-14.8094,-14.8224,-14.8407,-14.845,-14.8639,-14.8848,-14.8817,-14.9069,-14.9184,-14.9419,-14.9498,-14.969,-14.959,-14.9688,-14.9712,-14.9737,-14.9764,-14.9078,-14.9722,-14.972,-14.9719,-14.9717,-14.9716,0,-14.6988,-14.6983,-14.7174,-14.7368,-14.7525,-14.7674,-14.7811,-14.7924,-14.7908,-14.8066,-14.8292,-14.8422,-14.8677,-14.8886,-14.9068,-14.9129,-14.9037,-14.9028,-14.9095,-14.9114,-14.9107,-14.9112,-14.8273,-14.9009,-14.9003,-14.8998,-14.8995,-14.8993,-14.6333,-14.6558,-14.6693,-14.6825,-14.6903,-14.7117,-14.7245,-14.7215,-14.7351,-14.7512,-14.768,-14.7891,-14.8058,-14.8414,-14.8454,-14.8643,-14.8599,-14.8879,-14.8626,-14.8635,-14.8601,-14.8587,-14.8608,-14.8928,-14.8937,-14.8943,-14.8949,0,-14.5963,-14.5977,-14.6326,-14.6436,-14.647,-14.6704,-14.6795,-14.6983,-14.7003,-14.7263,-14.7322,-14.7351,-14.7571,-14.7566,-14.7815,-14.7805,-14.818,-14.8134,-14.814,-14.813,-14.8378,-14.8355,-14.9191,-14.9298,-14.8565,-14.8572,-14.8578,0,-14.5408,-14.5703,-14.5705,-14.5907,-14.6232,-14.6195,-14.6516,-14.6565,-14.6667,-14.6872,-14.677,-14.6963,-14.6927,-14.7118,-14.7104,-14.741,-14.7457,-14.7466,-14.7459,-14.7476,-14.7474,-14.7543,-14.7508,-14.7435,-14.7431,-14.7427,-14.7424,0,-14.4826,-14.5173,-14.5502,-14.5582,-14.5728,-14.5882,-14.5949,-14.6062,-14.6187,-14.6347,-14.6427,-14.6615,-14.6718,-14.6862,-14.6843,-14.6671,-14.7218,-14.6978,-14.7227,-14.7228,-14.7347,-14.734,-14.8084,-14.7419,-14.7417,-14.7416,-14.7414,0,-14.4379,-14.4549,-14.5025,-14.5142,-14.5234,-14.545,-14.5635,-14.5819,-14.5945,-14.5952,-14.6077,-14.6007,-14.6277,-14.6039,-14.6408,-14.619,-14.6295,-14.6329,-14.6347,-14.6369,-14.6103,-14.6521,-14.7231,-14.7304,-14.6391,-14.6382,-14.6375,0,-14.3708,-14.4192,-14.4165,-14.4617,-14.4839,-14.471,-14.4948,-14.5065,-14.5093,-14.5281,-14.5309,-14.5524,-14.5347,-14.5412,-14.5596,-14.5633,-14.5916,-14.5594,-14.5858,-14.5868,-14.5828,-14.6483,-14.6589,-14.7077,-14.6266,-14.6277,-14.6285,0,-14.3189,-14.3368,-14.3451,-14.354,-14.3693,-14.3879,-14.4152,-14.4359,-14.4486,-14.4629,-14.4854,-14.5156,-14.5033,-14.5144,-14.5106,-14.5298,-14.5723,-14.5139,-14.5141,-14.5243,-14.6211,-14.631,-14.6393,-14.5654,-14.5667,-14.5678,-14.6199,0,-14.2507,-14.2752,-14.2977,-14.318,-14.3323,-14.3607,-14.3607,-14.3756,-14.3707,-14.373,-14.4062,-14.4156,-14.4363,-14.4455,-14.4408,-14.485,-14.4774,-14.4641,-14.4407,-14.4837,-14.5008,-14.5079,-14.4152,-14.4145,-14.4139,-14.4135,0,0,-14.186,-14.2211,-14.2173,-14.244,-14.2558,-14.2421,-14.2723,-14.2821,-14.3023,-14.3106,-14.2976,-14.3416,-14.3498,-14.39,-14.4034,-14.4118,-14.4195,-14.4046,-14.4633,-14.4689,-14.474,-14.4924,-14.4997,-14.4124,-14.4122,-14.412,-14.4118,0,-14.1611,-14.1707,-14.2009,-14.211,-14.2258,-14.227,-14.2342,-14.2464,-14.2493,-14.282,-14.2698,-14.2896,-14.325,-14.3352,-14.3449,-14.3998,-14.3893,-14.4061,-14.4357,-14.4575,-14.4638,-14.4694,-14.4887,-14.4957,-14.4104,-14.4105,-14.4105,0,-14.1099,-14.1191,-14.1338,-14.1604,-14.17,-14.1932,-14.1688,-14.1944,-14.2114,-14.1946,-14.2273,-14.2325,-14.246,-14.2842,-14.3013,-14.2899,-14.3617,-14.3391,-14.3427,-14.3445,-14.3656,-14.3732,-14.38,-14.2905,-14.2901,-14.2897,0,0,-14.0883,-14.1111,-14.1199,-14.1551,-14.1619,-14.1641,-14.1765,-14.1729,-14.1858,-14.1909,-14.1974,-14.2099,-14.2303,-14.2439,-14.263,-14.3051,-14.3073,-14.3243,-14.33,-14.3346,-14.339,-14.3612,-14.3688,-14.2882,-14.2881,-14.2881,0,0,-14.0778,-14.0897,-14.0826,-14.1235,-14.1363,-14.147,-14.1683,-14.1597,-14.1771,-14.1738,-14.1685,-14.1717,-14.2074,-14.2129,-14.192,-14.2546,-14.2315,-14.2365,-14.2497,-14.2569,-14.2624,-14.2603,-14.1679,0,0,0,0,0,-14.0525,-14.0882,-14.0817,-14.0885,-14.122,-14.1507,-14.1549,-14.1517,-14.1354,-14.1523,-14.1562,-14.1442,-14.2004,-14.1818,-14.1884,-14.2118,-14.2679,-14.2715,-14.2749,-14.3019,-14.3093,-14.3156,0,0,0,0,0,0,-14.0552,-14.0636,-14.0807,-14.0931,-14.1005,-14.1494,-14.1211,-14.1212,-14.1335,-14.1308,-14.1439,-14.1447,-14.1421,-14.1781,-14.1842,-14.2064,-14.1659,-14.2693,-14.2724,-14.2751,-14.3044,-14.3105,-14.3158,0,0,0,0,0,-14.0573,-14.064,-14.1187,-14.0925,-14.099,-14.1033,-14.1197,-14.1196,-14.129,-14.1353,-14.1356,-14.1255,-14.1429,-14.1477,-14.1817,-14.2038,-14.1617,-14.1639,-14.2713,-14.2737,-14.2759,-14.3074,0,0,0,0,0,0,-14.0588,-14.064,-14.1199,-14.1218,-14.0789,-14.1004,-14.1037,-14.1182,-14.1325,-14.1334,-14.1164,-14.1141,-14.1439,-14.1474,-14.1512,-14.2031,-14.1582,-14.1606,-14.162,-14.2731,-14.275,-14.2767,0,0,0,0,0,0,-14.0602,-14.0656,-14.1209,-14.1039,-14.1037,-14.0979,-14.1008,-14.1291,-14.1329,-14.1128,-14.1113,-14.1152,-14.1379,-14.1474,-14.1503,-14.1946,-14.1556,-14.1578,-14.1594,-14.1603,-14.2747,-14.2762,0,0,0,0,0,0,-14.0624,-14.067,-14.1033,-14.1033,-14.103,-14.1233,-14.1227,-14.1571,-14.1188,-14.1123,-14.1152,-14.1136,-14.1383,-14.1411,-14.1497,-14.193,-14.1942,-14.1557,-14.1572,-14.1583,-14.159,0,0,0,0,0,0,0,-14.0642,-14.0344,-14.1091,-14.1028,-14.1025,-14.1388,-14.1392,-14.1397,-14.1184,-14.117,-14.1156,-14.1143,-14.143,-14.1454,-14.1479,-14.1916,0,0,-14.1555,-14.1565,0,0,0,0,0,0,0,0,-14.0323,-14.0339,-14.1092,-14.1096,-14.1099,-14.1388,-14.1392,-14.1396,-14.1182,-14.117,-14.1159,-14.1148,-14.1437,-14.1456,-14.1476,0,0,0,0,0,0,0,0,0,0,0,0,0,0,0,-14.1092,-14.1095,0,-14.1389,-14.1392,-14.1395,-14.118,-14.1171,-14.1161,-14.1152,-14.1442,-14.1458,-14.1475,0,0,0,0,0,0,0,0,0,0,0,0,0,0,0,0,0,0,0,0,0,0,0,0,0,0,0,0,0,0,0,0,0,0,0,0,0,0,0,0,0,0,0,0,0,0,0,0,0,0,0,0,0,0,0,0,0,0,0,0,0,0,0,0,0,0,0,0,0]}]]]